Regional Weather Roundup
Issued by NWS

Home | Current Version | Previous Version | Graphics & Text | Print | Product List | Glossary On
Versions: 1 2 3 4 5 6 7 8 9 10 11 12 13 14 15 16 17 18 19 20 21 22 23 24 25 26 27 28 29 30 31 32 33 34 35 36 37 38 39 40 41 42 43 44 45 46 47 48 49 50
000
ASUS43 KDMX 282201
RWRIA

WEATHER ROUNDUP FOR IOWA
NATIONAL WEATHER SERVICE DES MOINES IA
500 PM CDT TUE MAR 28 2017

NOTE: "FAIR" INDICATES FEW OR NO CLOUDS BELOW 12,000 FEET WITH NO
SIGNIFICANT WEATHER AND/OR OBSTRUCTIONS TO VISIBILITY.

* - THESE STATIONS ARE NOT NWS STATIONS...THUS NOT UNDER NWS
QUALITY CONTROL.  THEY ALSO DO NOT REPORT WEATHER SUCH
AS PRECIPITATION OR FOG.

IAZ001>003-012>014-020>022-031>034-043>046-282300-
   NORTHWEST IOWA

CITY           SKY/WX    TMP DP  RH WIND       PRES   REMARKS
CARROLL *      CLOUDY    52  45  76 E13       30.10R
DENISON *      CLOUDY    52  43  71 E14       30.09S
LE MARS *      SUNNY     61  36  39 NE9G21    30.07R
ORANGE CITY *  SUNNY     61  36  39 E10       30.07S
SHELDON *      CLOUDY    59  37  44 E18       30.07S
SPENCER        SUNNY     59  36  42 E15       30.09F
STORM LAKE *   MOSUNNY   57  39  51 E14G20    30.07F
$$

IAZ055>058-069>071-079>083-090>094-282300-
   SOUTHWEST IOWA

CITY           SKY/WX    TMP DP  RH WIND       PRES   REMARKS
ATLANTIC *     CLOUDY    50  43  76 E12       30.08S
AUDUBON *      CLOUDY    52  45  76 E12       30.09S
CLARINDA *     CLOUDY    54  45  71 NE9       30.07F
COUNCIL BLFS * CLOUDY    48  45  87 E9        30.06F
CRESTON *      CLOUDY    52  45  76 NE9       30.08F
HARLAN  *      CLOUDY    52  45  76 E12       30.10F
LAMONI         CLOUDY    54  45  71 E6        30.06S
RED OAK *      CLOUDY    52  43  71 E10       30.06F
SHENANDOAH *   CLOUDY    52  45  76 NE13      30.06F
$$

IAZ047>049-059>061-072>074-084-282300-
   CENTRAL IOWA

CITY           SKY/WX    TMP DP  RH WIND       PRES   REMARKS
AMES           CLOUDY    51  45  79 E8        30.10S
ANKENY *       CLOUDY    52  43  71 E7        30.11S
BOONE *        CLOUDY    52  45  76 E12       30.09F
CHARITON *     CLOUDY    52  45  76 E9        30.08S
DES MOINES     CLOUDY    52  42  69 E9        30.10R
GRINNELL*      CLOUDY    51  42  71 CALM      30.12S
NEWTON *       CLOUDY    50  43  76 E7        30.11R
PERRY *        CLOUDY    50  43  76 E9        30.10S
$$

IAZ004>006-015-016-023>025-035-036-282300-
   NORTH CENTRAL IOWA

CITY           SKY/WX    TMP DP  RH WIND       PRES   REMARKS
ALGONA *       MOSUNNY   57  41  54 E9        30.11S
CLARION *      CLOUDY    57  43  58 E10       30.10S
ESTHERVILLE    SUNNY     58  38  47 E14       30.09S
FORT DODGE *   PTSUNNY   55  43  62 SE8       30.11S
MASON CITY     MOSUNNY   58  37  45 NE15      30.11S
FOREST CITY *  PTSUNNY   59  37  44 E8        30.11S
WEBSTER CITY * MOSUNNY   55  43  62 E9        30.08F
IOWA FALLS *   PTSUNNY   58  42  55 E10       30.12R
$$

IAZ007>011-017>019-026>030-037>042-050>054-066-282300-
   NORTHEAST IOWA

CITY           SKY/WX    TMP DP  RH WIND       PRES   REMARKS
CHARLES CITY * SUNNY     57  37  47 NE10      30.12R
CLINTON *      CLOUDY    48  40  73 E10       30.14S
DECORAH *      SUNNY     55  36  47 E8        30.11S
DUBUQUE        CLOUDY    48  40  73 NE8       30.14S
MONTICELLO *   MOSUNNY   54  41  62 NE8       30.12S
OELWEIN *      SUNNY     55  41  58 E10       30.12S
WATERLOO       PTSUNNY   59  39  47 E12G20    30.10S
$$

IAZ064-065-067-068-078-282300-
   EAST CENTRAL IOWA

CITY           SKY/WX    TMP DP  RH WIND       PRES   REMARKS
DAVENPORT      CLOUDY    50  41  71 NE13      30.14R
IOWA CITY      CLOUDY    53  43  68 E6        30.13S
MUSCATINE *    CLOUDY    52  43  71 E7        30.13R
$$

IAZ062-063-075>077-085>089-095>099-282300-
   SOUTHEAST IOWA

CITY           SKY/WX    TMP DP  RH WIND       PRES   REMARKS
FAIRFIELD *    CLOUDY    52  43  71 E10       30.10S
FORT MADISON * CLOUDY    52  52 100 NE9       30.11S
KEOKUK *       CLOUDY    54  46  76 NE6       30.09S
OSKALOOSA *    CLOUDY    52  43  71 E9        30.11R
OTTUMWA        CLOUDY    53  44  71 E8        30.10R
WASHINGTON *   CLOUDY    52  48  87 E8        30.12S
$$

ABBREVIATIONS USED IN REMARKS
   TC - TEMPERATURES IN CELSIUS
  WCI - WIND CHILL INDEX
   HX - HEAT INDEX
  VSB - VISIBILITY
$$





USA.gov is the U.S. government's official web portal to all federal, state and local government web resources and services.